CW7536 Weather Reports


Display with metric or nautical units.
time (UTC)temp
F
wind
direction
speed
MPH
gust
MPH
rain 1hr
in
rain 24hr
in
rain mn
in
humidity
%
barometer
mb
20260903163033 80 288 1.0 6.0 0.00 0.00 0.00 1 1014.3
20260903161533 79 296 1.0 8.0 0.00 0.00 0.00 1 1014.4
20260903160050 79 290 2.0 6.0 0.00 0.00 0.00 1 1014.7
20260903154520 78 294 2.0 6.0 0.00 0.00 0.00 1 1014.9
20260903153018 77 248 0.0 6.0 0.00 0.00 0.00 1 1015.1
20260903151511 76 212 2.0 9.0 0.00 0.00 0.00 1 1015.3
20260903150021 76 248 0.0 4.0 0.00 0.00 0.00 1 1015.3
20260903144502 75 241 2.0 7.0 0.00 0.00 0.00 1 1015.0
20260903143101 74 241 1.0 5.0 0.00 0.00 0.00 1 1015.2
20260903141554 73 208 1.0 8.0 0.00 0.00 0.00 1 1015.1
20260903140053 72 75 0.0 7.0 0.00 0.00 0.00 1 1015.1
20260903134545 71 279 2.0 6.0 0.00 0.00 0.00 1 1015.1
20260903133040 71 110 0.0 2.0 0.00 0.00 0.00 1 1015.4
20260903131536 70 136 0.0 4.0 0.00 0.00 0.00 1 1015.3
20260903130035 70 238 0.0 2.0 0.00 0.00 0.00 1 1015.1
20260903124527 69 176 0.0 1.0 0.00 0.00 0.00 1 1015.1
20260903123023 69 50 0.0 1.0 0.00 0.00 0.00 1 1015.1
20260903121518 68 11 0.0 5.0 0.00 0.00 0.00 1 1015.1
20260903120014 68 278 0.0 3.0 0.00 0.00 0.00 1 1014.7
20260903114510 67 186 0.0 2.0 0.00 0.00 0.00 1 1014.8
20260903113007 67 159 0.0 1.0 0.00 0.00 0.00 1 1015.2
20260903111501 67 272 0.0 2.0 0.00 0.00 0.00 1 1015.3
20260903110057 67 246 0.0 3.0 0.00 0.00 0.00 1 1015.5
20260903104553 67 286 0.0 2.0 0.00 0.00 0.00 1 1015.6
20260903103048 67 255 0.0 1.0 0.00 0.00 0.00 1 1015.6
20260903101547 67 281 0.0 2.0 0.00 0.00 0.00 1 1015.4
20260903100039 67 229 0.0 1.0 0.00 0.00 0.00 1 1015.4
20260903094537 68 290 0.0 1.0 0.00 0.00 0.00 1 1015.3
20260903093040 68 44 0.0 0.0 0.00 0.00 0.00 1 1015.2
20260903091525 68 45 0.0 0.0 0.00 0.00 0.00 1 1015.1
20260903090030 68 32 1.0 3.0 0.00 0.00 0.00 1 1015.3
20260903084516 68 271 2.0 12.0 0.00 0.00 0.00 1 1014.7
20260903083012 68 245 2.0 10.0 0.00 0.00 0.00 1 1014.5
20260903081507 68 235 1.0 7.0 0.00 0.00 0.00 1 1014.6
20260903080003 68 259 0.0 2.0 0.00 0.00 0.00 1 1016.6
20260903074622 68 264 0.0 3.0 0.00 0.00 0.00 1 1016.1
20260903073107 68 290 0.0 3.0 0.00 0.00 0.00 1 1016.2
20260903071554 67 278 0.0 1.0 0.00 0.00 0.00 1 1015.7
20260903070049 67 289 0.0 1.0 0.00 0.00 0.00 1 1015.2
20260903064545 67 356 0.0 1.0 0.00 0.00 0.00 1 1016.1
20260903063041 67 343 0.0 1.0 0.00 0.00 0.00 1 1016.7
20260903061543 67 343 0.0 0.0 0.00 0.00 0.00 1 1017.0
20260903060033 67 343 0.0 0.0 0.00 0.00 0.00 1 1016.9
20260903054527 67 342 0.0 1.0 0.00 0.00 0.00 1 1017.3
20260903053022 67 339 0.0 4.0 0.00 0.00 0.00 1 1017.5
20260903051517 67 233 0.0 2.0 0.00 0.00 0.00 1 1017.2
20260903050025 67 156 0.0 1.0 0.00 0.00 0.00 1 1018.5
20260903044508 67 264 0.0 0.0 0.00 0.00 0.00 1 1019.0
20260903043006 67 136 0.0 0.0 0.00 0.00 0.00 1 1019.0
20260903041600 67 72 0.0 0.0 0.00 0.00 0.00 1 1019.4
20260903040056 67 72 0.0 0.0 0.00 0.00 0.00 1 1018.9
20260903034555 67 72 0.0 0.0 0.00 0.00 0.00 1 1018.9
20260903033047 67 72 0.0 0.0 0.00 0.00 0.00 1 1018.3
20260903031600 67 72 0.0 0.0 0.00 0.00 0.00 1 1018.6
20260903030044 67 72 0.0 0.0 0.00 0.00 0.00 1 1018.4
20260903024538 67 72 0.0 0.0 0.00 0.00 0.00 1 1018.6
20260903023030 67 72 0.0 1.0 0.00 0.00 0.00 1 1018.6
20260903021525 67 72 0.0 0.0 0.00 0.00 0.00 1 1018.8
20260903020022 67 72 0.0 0.0 0.00 0.00 0.00 1 1019.1
20260903014524 68 72 0.0 0.0 0.00 0.00 0.00 1 1018.7
20260903013031 68 72 0.0 0.0 0.00 0.00 0.00 1 1018.7
20260903011520 68 72 0.0 0.0 0.00 0.00 0.00 1 1019.1
20260903010016 68 37 0.0 0.0 0.00 0.00 0.00 1 1019.3
20260903004516 68 37 0.0 0.0 0.00 0.00 0.00 1 1019.1
20260903003008 68 37 0.0 0.0 0.00 0.00 0.00 1 1019.3
20260903001502 68 37 0.0 1.0 0.00 0.00 0.00 1 1019.2
20260903000058 68 37 0.0 0.0 0.00 0.00 0.00 1 1019.0
20260902234602 68 37 0.0 0.0 0.00 0.00 0.00 1 1018.7
20260902233100 68 37 0.0 0.0 0.00 0.00 0.00 1 1018.7
20260902231650 68 37 0.0 1.0 0.00 0.00 0.00 1 1018.5
20260902230049 68 32 0.0 0.0 0.00 0.00 0.00 1 1018.6
20260902224541 68 32 0.0 1.0 0.00 0.00 0.00 1 1018.7
20260902223043 68 32 0.0 1.0 0.00 0.00 0.00 1 1019.1
20260902221532 68 68 0.0 0.0 0.00 0.00 0.00 1 1019.2
20260902220028 68 68 0.0 1.0 0.00 0.00 0.00 1 1019.4
20260902214528 68 86 0.0 1.0 0.00 0.00 0.00 1 1019.3
20260902213026 68 91 0.0 2.0 0.00 0.00 0.00 1 1019.5
20260902211514 68 91 0.0 1.0 0.00 0.00 0.00 1 1019.4
20260902210016 67 95 0.0 1.0 0.00 0.00 0.00 1 1019.3
20260902204506 67 75 0.0 1.0 0.00 0.00 0.00 1 1019.5
20260902203003 67 75 0.0 1.0 0.00 0.00 0.00 1 1019.4
20260902201502 67 75 0.0 1.0 0.00 0.00 0.00 1 1019.4
20260902200059 67 75 0.0 1.0 0.00 0.00 0.00 1 1019.3
20260902194553 67 74 0.0 1.0 0.00 0.00 0.00 1 1019.5
20260902193049 67 57 0.0 2.0 0.00 0.00 0.00 1 1019.8
20260902191551 67 98 1.0 3.0 0.00 0.00 0.00 1 1019.9
20260902190041 67 29 1.0 4.0 0.00 0.00 0.00 1 1020.2
20260902184547 67 93 0.0 1.0 0.00 0.00 0.00 1 1019.9
20260902183033 67 93 0.0 0.0 0.00 0.00 0.00 1 1020.0
20260902181528 67 93 0.0 0.0 0.00 0.00 0.00 1 1020.2
20260902180029 67 93 0.0 1.0 0.00 0.00 0.00 1 1020.3
20260902174520 67 82 0.0 1.0 0.00 0.00 0.00 1 1020.0
20260902173016 67 82 0.0 0.0 0.00 0.00 0.00 1 1020.2
20260902171511 67 82 0.0 1.0 0.00 0.00 0.00 1 1020.3
20260902170012 67 82 0.0 0.0 0.00 0.00 0.00 1 1020.6
20260902164505 66 82 0.0 2.0 0.00 0.00 0.00 1 1020.4